TimeCDT,TemperatureF,Dew PointF,Humidity,Sea Level PressureIn,VisibilityMPH,Wind Direction,Wind SpeedMPH,Gust SpeedMPH,PrecipitationIn,Events,Conditions,WindDirDegrees,DateUTC
12:16 AM,62.6,59.0,88,29.83,10.0,Calm,Calm,-,N/A,,Mostly Cloudy,0,2013-06-11 05:16:00
12:35 AM,62.6,59.0,88,29.83,10.0,SSE,4.6,-,N/A,,Mostly Cloudy,150,2013-06-11 05:35:00
12:55 AM,62.6,59.0,88,29.84,10.0,Calm,Calm,-,N/A,Rain,Light Rain,0,2013-06-11 05:55:00
1:16 AM,64.4,59.0,83,29.85,10.0,NNW,5.8,-,N/A,,Overcast,330,2013-06-11 06:16:00
1:35 AM,64.4,59.0,83,29.84,7.0,SW,6.9,-,0.02,Rain,Rain,230,2013-06-11 06:35:00
1:55 AM,62.6,59.0,88,29.85,10.0,West,3.5,-,0.05,Rain,Light Rain,280,2013-06-11 06:55:00
2:16 AM,62.6,60.8,94,29.85,10.0,Calm,Calm,-,N/A,,Scattered Clouds,0,2013-06-11 07:16:00
2:35 AM,62.6,60.8,94,29.85,10.0,Calm,Calm,-,N/A,,Clear,0,2013-06-11 07:35:00
2:55 AM,60.8,60.8,100,29.86,10.0,Calm,Calm,-,N/A,,Scattered Clouds,0,2013-06-11 07:55:00
3:16 AM,60.8,59.0,94,29.87,7.0,Calm,Calm,-,N/A,,Mostly Cloudy,0,2013-06-11 08:16:00
3:35 AM,60.8,59.0,94,29.87,10.0,Calm,Calm,-,N/A,,Scattered Clouds,0,2013-06-11 08:35:00
3:56 AM,60.8,59.0,94,29.88,10.0,NNW,4.6,-,N/A,,Clear,340,2013-06-11 08:56:00
4:15 AM,60.8,59.0,94,29.88,10.0,NNW,6.9,-,N/A,,Clear,330,2013-06-11 09:15:00
4:35 AM,60.8,59.0,94,29.88,10.0,NNW,9.2,-,N/A,,Clear,340,2013-06-11 09:35:00
4:56 AM,60.8,59.0,94,29.88,10.0,NNW,8.1,-,N/A,,Clear,340,2013-06-11 09:56:00
5:15 AM,60.8,59.0,94,29.88,10.0,North,4.6,-,N/A,,Clear,360,2013-06-11 10:15:00
5:35 AM,60.8,55.4,82,29.88,10.0,Calm,Calm,-,N/A,,Clear,0,2013-06-11 10:35:00
5:56 AM,60.8,55.4,82,29.88,10.0,North,4.6,-,N/A,,Clear,350,2013-06-11 10:56:00
6:15 AM,60.8,53.6,77,29.88,10.0,North,3.5,-,N/A,,Clear,350,2013-06-11 11:15:00
6:35 AM,60.8,53.6,77,29.88,10.0,Calm,Calm,-,N/A,,Clear,0,2013-06-11 11:35:00
6:56 AM,60.8,55.4,82,29.89,10.0,Calm,Calm,-,N/A,,Scattered Clouds,0,2013-06-11 11:56:00
7:15 AM,60.8,55.4,82,29.90,10.0,Calm,Calm,-,N/A,,Scattered Clouds,0,2013-06-11 12:15:00
7:35 AM,62.6,55.4,77,29.90,10.0,Calm,Calm,-,N/A,,Clear,0,2013-06-11 12:35:00
7:56 AM,62.6,55.4,77,29.91,10.0,Calm,Calm,-,N/A,,Clear,0,2013-06-11 12:56:00
8:15 AM,62.6,53.6,72,29.91,10.0,NNE,4.6,-,N/A,,Clear,20,2013-06-11 13:15:00
8:35 AM,64.4,53.6,68,29.92,10.0,NNE,3.5,-,N/A,,Clear,20,2013-06-11 13:35:00
8:56 AM,64.4,53.6,68,29.93,10.0,Calm,Calm,-,N/A,,Clear,0,2013-06-11 13:56:00
9:15 AM,66.2,51.8,60,29.95,10.0,Calm,Calm,-,N/A,,Clear,0,2013-06-11 14:15:00
9:35 AM,68.0,50.0,52,29.94,10.0,Calm,Calm,-,N/A,,Clear,0,2013-06-11 14:35:00
9:56 AM,68.0,48.2,49,29.94,10.0,NNE,4.6,-,N/A,,Clear,30,2013-06-11 14:56:00
10:15 AM,69.8,50.0,49,29.93,10.0,NE,5.8,-,N/A,,Clear,40,2013-06-11 15:15:00
10:35 AM,68.0,46.4,46,29.93,10.0,NE,5.8,-,N/A,,Clear,50,2013-06-11 15:35:00
10:56 AM,69.8,46.4,43,29.91,10.0,NNE,5.8,-,N/A,,Clear,30,2013-06-11 15:56:00
11:15 AM,71.6,46.4,41,29.91,10.0,NNE,6.9,-,N/A,,Clear,30,2013-06-11 16:15:00
11:35 AM,71.6,44.6,38,29.91,10.0,NE,6.9,-,N/A,,Clear,40,2013-06-11 16:35:00
11:56 AM,71.6,44.6,38,29.92,10.0,North,3.5,-,N/A,,Clear,10,2013-06-11 16:56:00
12:15 PM,71.6,44.6,38,29.92,10.0,NE,4.6,-,N/A,,Clear,40,2013-06-11 17:15:00
12:35 PM,71.6,41.0,33,29.91,10.0,NE,5.8,-,N/A,,Clear,50,2013-06-11 17:35:00
12:55 PM,73.4,42.8,33,29.93,10.0,NE,3.5,-,N/A,,Clear,40,2013-06-11 17:55:00
1:15 PM,73.4,41.0,31,29.93,10.0,Calm,Calm,-,N/A,,Clear,0,2013-06-11 18:15:00
1:36 PM,73.4,42.8,33,29.92,10.0,Calm,Calm,-,N/A,Thunderstorm,Clear,0,2013-06-11 18:36:00
1:55 PM,73.4,41.0,31,29.91,10.0,NNW,3.5,-,N/A,,Clear,340,2013-06-11 18:55:00
2:15 PM,75.2,41.0,29,29.92,10.0,North,4.6,-,N/A,,Clear,360,2013-06-11 19:15:00
2:35 PM,75.2,41.0,29,29.91,10.0,North,4.6,-,N/A,,Clear,350,2013-06-11 19:35:00
2:55 PM,75.2,41.0,29,29.92,10.0,NE,4.6,-,N/A,,Clear,40,2013-06-11 19:55:00
3:16 PM,75.2,39.2,27,29.92,10.0,North,5.8,-,N/A,,Clear,350,2013-06-11 20:16:00
3:35 PM,77.0,41.0,28,29.92,10.0,North,8.1,-,N/A,,Clear,350,2013-06-11 20:35:00
3:55 PM,77.0,37.4,24,29.92,10.0,Calm,Calm,-,N/A,,Clear,0,2013-06-11 20:55:00
4:15 PM,77.0,39.2,26,29.92,10.0,North,3.5,-,N/A,,Clear,360,2013-06-11 21:15:00
4:36 PM,77.0,41.0,28,29.91,10.0,North,8.1,-,N/A,,Clear,350,2013-06-11 21:36:00
4:55 PM,77.0,41.0,28,29.91,10.0,NNW,6.9,-,N/A,,Clear,340,2013-06-11 21:55:00
5:15 PM,77.0,39.2,26,29.92,10.0,NNW,8.1,-,N/A,,Clear,340,2013-06-11 22:15:00
5:36 PM,77.0,37.4,24,29.92,10.0,North,10.4,-,N/A,,Clear,350,2013-06-11 22:36:00
5:55 PM,77.0,37.4,24,29.92,10.0,NNW,9.2,-,N/A,,Clear,340,2013-06-11 22:55:00
6:15 PM,75.2,37.4,25,29.91,10.0,NNW,6.9,-,N/A,,Clear,330,2013-06-11 23:15:00
6:36 PM,73.4,37.4,27,29.91,10.0,NNW,5.8,-,N/A,,Clear,340,2013-06-11 23:36:00
6:55 PM,75.2,39.2,27,29.91,10.0,North,5.8,-,N/A,,Clear,350,2013-06-11 23:55:00
7:15 PM,73.4,41.0,31,29.90,10.0,NNE,3.5,-,N/A,,Clear,20,2013-06-12 00:15:00
7:36 PM,73.4,41.0,31,29.90,10.0,NE,3.5,-,N/A,,Clear,40,2013-06-12 00:36:00
7:55 PM,73.4,41.0,31,29.90,10.0,NNE,3.5,-,N/A,,Clear,30,2013-06-12 00:55:00
8:15 PM,73.4,42.8,33,29.90,10.0,Calm,Calm,-,N/A,,Clear,0,2013-06-12 01:15:00
8:35 PM,71.6,44.6,38,29.90,10.0,Calm,Calm,-,N/A,,Clear,0,2013-06-12 01:35:00
8:55 PM,71.6,44.6,38,29.91,10.0,NNE,3.5,-,N/A,,Clear,20,2013-06-12 01:55:00
9:16 PM,71.6,46.4,41,29.91,10.0,Calm,Calm,-,N/A,,Clear,0,2013-06-12 02:16:00
9:35 PM,69.8,46.4,43,29.92,10.0,Calm,Calm,-,N/A,,Clear,0,2013-06-12 02:35:00
9:55 PM,68.0,51.8,56,29.93,10.0,Calm,Calm,-,N/A,,Clear,0,2013-06-12 02:55:00
10:16 PM,64.4,55.4,73,29.93,10.0,Calm,Calm,-,N/A,,Clear,0,2013-06-12 03:16:00
10:35 PM,64.4,53.6,68,29.93,10.0,Calm,Calm,-,N/A,,Clear,0,2013-06-12 03:35:00
10:55 PM,64.4,51.8,64,29.92,10.0,Calm,Calm,-,N/A,,Clear,0,2013-06-12 03:55:00
11:16 PM,60.8,53.6,77,29.93,10.0,Calm,Calm,-,N/A,,Clear,0,2013-06-12 04:16:00
11:35 PM,62.6,51.8,68,29.93,10.0,Calm,Calm,-,N/A,,Clear,0,2013-06-12 04:35:00
11:55 PM,62.6,51.8,68,29.93,10.0,Calm,Calm,-,N/A,,Clear,0,2013-06-12 04:55:00